THORAD AGENA D DEB, 5067

Orbit data source: Space-Track

THORAD AGENA D DEB, 5067 is space debris in SSO originally from a launch on Wed, 08 Apr 1970 UTC launched from the Air Force Western Test Range (AFWTR). Debris objects in space refer to the collection of defunct objects orbiting the Earth. Examples of debris include non-operational satellites, rocket bodies, and fragments generated from explosions, collisions, or faulty payload assembly.

Loading next visibility...
Identifier
5067, 1970-025JM
Orbit
SSO
Country
Flag of USUS
Related business
Manufacturer
Unknown
Mission
Spacecraft
Bus & Motor
Unknown
Mass
Unknown
Launch date (UTC)
1970-04-08 (56 years ago)
Launch vehicle
Unknown
Launch site
Air Force Western Test Range (AFWTR)
Object type
Payload
Rocket body
Debris
Shape & HBR
Unknown shape, 0.1 m
Radar Cross Section
Small (<0.1 m²)

Expand to show TLE details & history
Last TLE update: 8 hours ago

TLE from 8 hours ago
0 THORAD AGENA D DEB
1 05067U 70025JM  26208.20191321  .00000322  00000-0  45361-3 0  9998
2 05067  99.9953 104.3764 0005921 133.5186  18.2806 13.65350823790785
Epoch: 2026-07-27T04:50Z
TLE epoch observation values (Epoch: 2026-07-27T04:50:45.301Z)
Latitude
27.75641°
Longitude
-87.90697°
Altitude
1,015.452 km
Speed
7.349 km/s
True Right ascension
19h 18m 40s
True Declination
27° 37' 12"
Sunlit
Object was in full shadow at epoch
Visualization orbit readout
Latitude
Unknown
Longitude
Unknown
Altitude
Unknown
Speed
Unknown
Apparent Right ascension
Unknown
Apparent Declination
Unknown
Sunlit
N/A
Visualization observer readout
Local Sidereal Time
02:23:53
Azimuth
Unknown
Elevation
Unknown
Doppler factor
Unknown
Orbital elements
Apogee altitude
1,017.983 km
Perigee altitude
1,009.229 km
Semi-major axis
7,391.743 km
Eccentricity
0.00059
Inclination
99.9953°
RAAN
104.3764°
Arg. of periapsis
133.5186°
True anomaly
18.3019°
Mean anomaly
18.2806°
Eccentric anomaly
18.29125°
Mean motion
3.41525 °/min
Orbital period
105.41 mins
BSTAR
0.00045361
Loading maneuver chart data...
Computing Atmospheric mass density...

Documentation

Showing up to 5 results
|